| time (UTC) | temp F | wind direction | speed knots | gust knots | rain 1hr in | rain 24hr in | rain mn in | humidity % | barometer mb |
| 20260504235011 | 53 | 216 | 0.9 | 1.7 | 0.00 | 0.00 | 0.00 | 77 | 1017.7 |
| 20260504234528 | 53 | 207 | 0.9 | 2.6 | 0.00 | 0.00 | 0.00 | 76 | 1017.7 |
| 20260504234008 | 54 | 203 | 0.9 | 2.6 | 0.00 | 0.00 | 0.00 | 75 | 1017.9 |
| 20260504233507 | 54 | 229 | 1.7 | 2.6 | 0.00 | 0.00 | 0.00 | 74 | 1017.7 |
| 20260504233028 | 56 | 198 | 1.7 | 5.2 | 0.00 | 0.00 | 0.00 | 74 | 1017.8 |
| 20260504232511 | 57 | 264 | 0.0 | 7.0 | 0.00 | 0.00 | 0.00 | 79 | 1017.9 |
| 20260504232013 | 57 | 323 | 3.5 | 7.8 | 0.00 | 0.00 | 0.00 | 82 | 1017.9 |
| 20260504231526 | 57 | 302 | 2.6 | 7.8 | 0.00 | 0.00 | 0.00 | 82 | 1017.9 |
| 20260504231012 | 55 | 0 | 0.9 | 1.7 | 0.00 | 0.00 | 0.00 | 79 | 1018.0 |
| 20260504230510 | 55 | 218 | 0.0 | 3.5 | 0.00 | 0.00 | 0.00 | 77 | 1018.2 |
| 20260504230029 | 56 | 229 | 0.9 | 3.5 | 0.00 | 0.00 | 0.00 | 78 | 1018.1 |
| 20260504225514 | 55 | 334 | 0.9 | 4.3 | 0.00 | 0.00 | 0.00 | 78 | 1018.2 |
| 20260504225012 | 56 | 216 | 0.9 | 4.3 | 0.00 | 0.00 | 0.00 | 76 | 1018.2 |
| 20260504224526 | 58 | 244 | 1.7 | 5.2 | 0.00 | 0.00 | 0.00 | 80 | 1018.2 |
| 20260504224011 | 58 | 323 | 0.9 | 5.2 | 0.00 | 0.00 | 0.00 | 81 | 1018.3 |
| 20260504223510 | 57 | 321 | 1.7 | 5.2 | 0.00 | 0.00 | 0.00 | 83 | 1018.3 |
| 20260504223028 | 56 | 290 | 0.9 | 4.3 | 0.00 | 0.00 | 0.00 | 82 | 1018.5 |
| 20260504222508 | 56 | 236 | 0.0 | 3.5 | 0.00 | 0.00 | 0.00 | 79 | 1018.6 |
| 20260504222010 | 56 | 236 | 0.0 | 3.5 | 0.00 | 0.00 | 0.00 | 80 | 1018.6 |
| 20260504221526 | 57 | 240 | 0.9 | 4.3 | 0.00 | 0.00 | 0.00 | 81 | 1018.6 |
| 20260504221011 | 56 | 332 | 0.9 | 4.3 | 0.00 | 0.00 | 0.00 | 81 | 1018.6 |
| 20260504220026 | 54 | 254 | 0.0 | 1.7 | 0.00 | 0.00 | 0.00 | 78 | 1018.5 |
| 20260504215510 | 53 | 205 | 0.0 | 1.7 | 0.00 | 0.00 | 0.00 | 78 | 1018.4 |
| 20260504215007 | 53 | 0 | 0.9 | 1.7 | 0.00 | 0.00 | 0.00 | 78 | 1018.5 |
| 20260504214526 | 53 | 155 | 0.0 | 1.7 | 0.00 | 0.00 | 0.00 | 77 | 1018.5 |
| 20260504214010 | 53 | 165 | 0.9 | 2.6 | 0.00 | 0.00 | 0.00 | 77 | 1018.4 |
| 20260504213510 | 54 | 210 | 0.9 | 2.6 | 0.00 | 0.00 | 0.00 | 76 | 1018.3 |
| 20260504213028 | 54 | 227 | 0.9 | 2.6 | 0.00 | 0.00 | 0.00 | 75 | 1018.3 |
| 20260504212510 | 56 | 200 | 0.0 | 1.7 | 0.00 | 0.00 | 0.00 | 77 | 1018.3 |
| 20260504212007 | 55 | 223 | 0.9 | 3.5 | 0.00 | 0.00 | 0.00 | 76 | 1018.4 |
| 20260504211528 | 56 | 233 | 0.0 | 3.5 | 0.00 | 0.00 | 0.00 | 76 | 1018.3 |
| 20260504211008 | 56 | 232 | 0.9 | 3.5 | 0.00 | 0.00 | 0.00 | 80 | 1018.4 |
| 20260504210528 | 55 | 245 | 0.9 | 3.5 | 0.00 | 0.00 | 0.00 | 78 | 1018.4 |
| 20260504210051 | 55 | 0 | 0.0 | 3.5 | 0.00 | 0.00 | 0.00 | 77 | 1018.3 |
| 20260504205509 | 54 | 153 | 0.0 | 1.7 | 0.00 | 0.00 | 0.00 | 73 | 1018.4 |
| 20260504205010 | 54 | 0 | 0.0 | 1.7 | 0.00 | 0.00 | 0.00 | 72 | 1018.4 |
| 20260504204528 | 54 | 212 | 0.9 | 2.6 | 0.00 | 0.00 | 0.00 | 72 | 1018.4 |
| 20260504204011 | 55 | 224 | 0.9 | 3.5 | 0.00 | 0.00 | 0.00 | 72 | 1018.3 |
| 20260504203512 | 54 | 235 | 0.9 | 3.5 | 0.00 | 0.00 | 0.00 | 72 | 1018.3 |
| 20260504203032 | 55 | 194 | 0.9 | 2.6 | 0.00 | 0.00 | 0.00 | 71 | 1018.4 |
| 20260504202510 | 55 | 158 | 0.0 | 2.6 | 0.00 | 0.00 | 0.00 | 70 | 1018.3 |
| 20260504202012 | 55 | 220 | 1.7 | 2.6 | 0.00 | 0.00 | 0.00 | 70 | 1018.3 |
| 20260504201528 | 55 | 215 | 0.9 | 1.7 | 0.00 | 0.00 | 0.00 | 70 | 1018.4 |
| 20260504201013 | 55 | 188 | 0.9 | 0.9 | 0.00 | 0.00 | 0.00 | 69 | 1018.3 |
| 20260504200509 | 56 | 0 | 0.0 | 1.7 | 0.00 | 0.00 | 0.00 | 68 | 1018.2 |
| 20260504200038 | 56 | 213 | 0.9 | 3.5 | 0.00 | 0.00 | 0.00 | 68 | 1018.3 |
| 20260504195513 | 56 | 203 | 0.9 | 3.5 | 0.00 | 0.00 | 0.00 | 67 | 1018.3 |
| 20260504195010 | 57 | 198 | 0.9 | 1.7 | 0.00 | 0.00 | 0.00 | 67 | 1018.2 |
| 20260504194528 | 57 | 198 | 0.9 | 2.6 | 0.00 | 0.00 | 0.00 | 66 | 1018.2 |
| 20260504194014 | 57 | 233 | 0.9 | 2.6 | 0.00 | 0.00 | 0.00 | 66 | 1018.1 |
| 20260504193512 | 58 | 191 | 0.9 | 2.6 | 0.00 | 0.00 | 0.00 | 64 | 1018.2 |
| 20260504193028 | 58 | 155 | 0.0 | 2.6 | 0.00 | 0.00 | 0.00 | 64 | 1018.1 |
| 20260504192508 | 59 | 238 | 0.0 | 2.6 | 0.00 | 0.00 | 0.00 | 63 | 1018.2 |
| 20260504192014 | 59 | 262 | 0.0 | 1.7 | 0.00 | 0.00 | 0.00 | 62 | 1018.2 |
| 20260504191546 | 59 | 225 | 0.9 | 1.7 | 0.00 | 0.00 | 0.00 | 62 | 1018.1 |
| 20260504191009 | 59 | 219 | 0.9 | 1.7 | 0.00 | 0.00 | 0.00 | 62 | 1018.0 |
| 20260504190511 | 59 | 357 | 0.0 | 1.7 | 0.00 | 0.00 | 0.00 | 62 | 1018.0 |
| 20260504190027 | 60 | 347 | 0.0 | 2.6 | 0.00 | 0.00 | 0.00 | 62 | 1018.0 |
| 20260504185511 | 60 | 264 | 0.9 | 2.6 | 0.00 | 0.00 | 0.00 | 62 | 1017.9 |
| 20260504185012 | 60 | 255 | 0.9 | 1.7 | 0.00 | 0.00 | 0.00 | 61 | 1017.8 |
| 20260504184527 | 61 | 0 | 0.0 | 1.7 | 0.00 | 0.00 | 0.00 | 60 | 1017.8 |
| 20260504184012 | 61 | 106 | 0.0 | 1.7 | 0.00 | 0.00 | 0.00 | 60 | 1017.8 |
| 20260504183039 | 61 | 209 | 0.0 | 3.5 | 0.00 | 0.00 | 0.00 | 59 | 1017.6 |
| 20260504182511 | 61 | 226 | 0.9 | 3.5 | 0.00 | 0.00 | 0.00 | 59 | 1017.6 |
| 20260504182013 | 62 | 182 | 0.9 | 2.6 | 0.00 | 0.00 | 0.00 | 56 | 1017.5 |
| 20260504181529 | 62 | 155 | 0.9 | 1.7 | 0.00 | 0.00 | 0.00 | 56 | 1017.4 |
| 20260504181013 | 62 | 277 | 0.0 | 1.7 | 0.00 | 0.00 | 0.00 | 58 | 1017.3 |
| 20260504180515 | 62 | 276 | 0.0 | 1.7 | 0.00 | 0.00 | 0.00 | 57 | 1017.2 |
| 20260504180030 | 63 | 0 | 0.0 | 2.6 | 0.00 | 0.00 | 0.00 | 54 | 1017.2 |
| 20260504175511 | 63 | 242 | 0.9 | 4.3 | 0.00 | 0.00 | 0.00 | 55 | 1017.2 |
| 20260504175008 | 63 | 0 | 0.0 | 4.3 | 0.00 | 0.00 | 0.00 | 56 | 1017.2 |
| 20260504174530 | 63 | 268 | 0.9 | 4.3 | 0.00 | 0.00 | 0.00 | 58 | 1017.1 |
| 20260504174011 | 63 | 307 | 0.0 | 3.5 | 0.00 | 0.00 | 0.00 | 55 | 1017.1 |
| 20260504173512 | 64 | 318 | 0.9 | 3.5 | 0.00 | 0.00 | 0.00 | 54 | 1017.0 |
| 20260504173029 | 64 | 313 | 0.9 | 3.5 | 0.00 | 0.00 | 0.00 | 54 | 1017.0 |
| 20260504172511 | 64 | 304 | 0.9 | 4.3 | 0.00 | 0.00 | 0.00 | 51 | 1016.8 |
| 20260504172012 | 65 | 306 | 0.9 | 4.3 | 0.00 | 0.00 | 0.00 | 50 | 1016.9 |
| 20260504171528 | 65 | 308 | 1.7 | 4.3 | 0.00 | 0.00 | 0.00 | 48 | 1016.8 |
| 20260504171015 | 65 | 311 | 0.9 | 5.2 | 0.00 | 0.00 | 0.00 | 50 | 1016.9 |
| 20260504170515 | 66 | 322 | 1.7 | 5.2 | 0.00 | 0.00 | 0.00 | 46 | 1016.8 |
| 20260504151010 | 70 | 259 | 2.6 | 7.0 | 0.00 | 0.00 | 0.00 | 42 | 1016.6 |
| 20260504150516 | 71 | 352 | 2.6 | 6.1 | 0.00 | 0.00 | 0.00 | 42 | 1016.6 |
| 20260504141015 | 71 | 285 | 4.3 | 9.6 | 0.00 | 0.00 | 0.00 | 39 | 1016.8 |
| 20260504140512 | 71 | 272 | 4.3 | 8.7 | 0.00 | 0.00 | 0.00 | 40 | 1016.8 |
| 20260504130510 | 70 | 304 | 4.3 | 11.3 | 0.00 | 0.00 | 0.00 | 44 | 1017.0 |
| 20260504110513 | 70 | 309 | 2.6 | 10.4 | 0.00 | 0.07 | 0.00 | 41 | 1017.8 |
| 20260504100514 | 68 | 290 | 4.3 | 13.0 | 0.00 | 0.07 | 0.00 | 43 | 1018.4 |
| 20260504081529 | 64 | 327 | 3.5 | 8.7 | 0.00 | 0.07 | 0.00 | 47 | 1019.1 |
| 20260504081011 | 64 | 319 | 4.3 | 8.7 | 0.00 | 0.07 | 0.00 | 47 | 1019.0 |
| 20260504080510 | 65 | 308 | 3.5 | 12.2 | 0.00 | 0.07 | 0.00 | 49 | 1019.1 |
| 20260504050513 | 55 | 307 | 6.1 | 10.4 | 0.00 | 0.07 | 0.00 | 62 | 1018.8 |
| 20260504045512 | 54 | 317 | 5.2 | 12.2 | 0.00 | 0.07 | 0.00 | 68 | 1018.9 |
| 20260504045012 | 53 | 297 | 7.0 | 12.2 | 0.00 | 0.07 | 0.00 | 70 | 1018.9 |
| 20260504044537 | 53 | 322 | 7.0 | 11.3 | 0.00 | 0.07 | 0.00 | 71 | 1018.9 |
| 20260504044013 | 53 | 324 | 6.1 | 10.4 | 0.00 | 0.07 | 0.00 | 70 | 1019.0 |
| 20260504043513 | 53 | 330 | 3.5 | 10.4 | 0.00 | 0.07 | 0.00 | 71 | 1019.0 |
| 20260504043029 | 52 | 331 | 4.3 | 12.2 | 0.00 | 0.07 | 0.00 | 71 | 1019.0 |
| 20260504042513 | 52 | 319 | 4.3 | 12.2 | 0.00 | 0.07 | 0.00 | 71 | 1018.9 |
| 20260504042009 | 52 | 356 | 3.5 | 10.4 | 0.00 | 0.07 | 0.00 | 71 | 1018.8 |
| 20260504041528 | 52 | 326 | 5.2 | 11.3 | 0.00 | 0.07 | 0.00 | 71 | 1018.8 |
| 20260504041012 | 52 | 290 | 6.1 | 11.3 | 0.00 | 0.07 | 0.00 | 71 | 1018.7 |
| 20260504040511 | 51 | 338 | 4.3 | 11.3 | 0.00 | 0.07 | 0.00 | 71 | 1018.7 |
| 20260504040030 | 51 | 255 | 4.3 | 8.7 | 0.00 | 0.07 | 0.00 | 71 | 1018.7 |
| 20260504035515 | 51 | 290 | 5.2 | 10.4 | 0.00 | 0.07 | 0.00 | 71 | 1018.6 |
| 20260504035015 | 51 | 304 | 6.1 | 10.4 | 0.00 | 0.07 | 0.00 | 71 | 1018.6 |
| 20260504034546 | 51 | 304 | 5.2 | 13.0 | 0.00 | 0.07 | 0.00 | 71 | 1018.6 |
| 20260504034012 | 51 | 278 | 4.3 | 13.0 | 0.00 | 0.07 | 0.00 | 71 | 1018.5 |
| 20260504033510 | 51 | 295 | 4.3 | 9.6 | 0.00 | 0.07 | 0.00 | 72 | 1018.4 |
| 20260504033033 | 50 | 290 | 0.9 | 7.0 | 0.00 | 0.07 | 0.00 | 72 | 1018.4 |
| 20260504032513 | 50 | 266 | 0.9 | 7.0 | 0.00 | 0.07 | 0.00 | 71 | 1018.5 |
| 20260504032011 | 50 | 313 | 2.6 | 6.1 | 0.00 | 0.07 | 0.00 | 72 | 1018.4 |
| 20260504031530 | 49 | 290 | 1.7 | 5.2 | 0.00 | 0.07 | 0.00 | 72 | 1018.4 |
| 20260504031009 | 48 | 243 | 0.9 | 3.5 | 0.00 | 0.07 | 0.00 | 67 | 1018.4 |
| 20260504030511 | 48 | 0 | 0.9 | 3.5 | 0.00 | 0.07 | 0.00 | 63 | 1018.5 |
| 20260504030042 | 47 | 271 | 0.0 | 2.6 | 0.00 | 0.07 | 0.00 | 64 | 1018.5 |
| 20260504025512 | 48 | 0 | 0.9 | 2.6 | 0.00 | 0.07 | 0.00 | 65 | 1018.5 |
| 20260504025012 | 48 | 226 | 0.9 | 3.5 | 0.00 | 0.07 | 0.00 | 68 | 1018.5 |
| 20260504024530 | 49 | 252 | 0.9 | 9.6 | 0.00 | 0.07 | 0.00 | 68 | 1018.6 |
| 20260504024012 | 49 | 261 | 0.9 | 9.6 | 0.00 | 0.07 | 0.00 | 70 | 1018.6 |
| 20260504023512 | 49 | 240 | 2.6 | 9.6 | 0.00 | 0.07 | 0.00 | 72 | 1018.6 |
| 20260504023031 | 48 | 300 | 2.6 | 9.6 | 0.00 | 0.07 | 0.00 | 74 | 1018.7 |
| 20260504022512 | 46 | 305 | 0.9 | 7.8 | 0.00 | 0.07 | 0.00 | 73 | 1018.7 |
| 20260504022011 | 45 | 227 | 0.9 | 2.6 | 0.00 | 0.07 | 0.00 | 70 | 1018.6 |
| 20260504021530 | 45 | 222 | 0.9 | 2.6 | 0.00 | 0.07 | 0.00 | 70 | 1018.7 |
| 20260504021012 | 45 | 236 | 0.9 | 2.6 | 0.00 | 0.07 | 0.00 | 70 | 1018.6 |
| 20260504020509 | 45 | 208 | 0.9 | 3.5 | 0.00 | 0.07 | 0.00 | 69 | 1018.7 |
| 20260504020032 | 46 | 0 | 0.0 | 3.5 | 0.00 | 0.07 | 0.00 | 67 | 1018.7 |
| 20260504015509 | 47 | 234 | 1.7 | 4.3 | 0.00 | 0.07 | 0.00 | 66 | 1018.7 |
| 20260504015010 | 48 | 221 | 0.0 | 4.3 | 0.00 | 0.07 | 0.00 | 66 | 1018.8 |
| 20260504014540 | 49 | 303 | 0.9 | 6.1 | 0.00 | 0.07 | 0.00 | 68 | 1018.7 |
| 20260504014013 | 49 | 312 | 0.0 | 6.1 | 0.00 | 0.07 | 0.00 | 67 | 1018.7 |
| 20260504013512 | 48 | 325 | 0.9 | 7.0 | 0.00 | 0.07 | 0.00 | 67 | 1018.7 |
| 20260504013033 | 48 | 252 | 0.9 | 7.0 | 0.00 | 0.07 | 0.00 | 67 | 1018.6 |
| 20260504012514 | 48 | 262 | 0.9 | 5.2 | 0.00 | 0.07 | 0.00 | 67 | 1018.6 |
| 20260504012013 | 47 | 221 | 0.9 | 5.2 | 0.00 | 0.07 | 0.00 | 68 | 1018.6 |
| 20260504011530 | 46 | 293 | 0.0 | 5.2 | 0.00 | 0.07 | 0.00 | 69 | 1018.6 |
| 20260504011015 | 46 | 242 | 0.9 | 2.6 | 0.00 | 0.07 | 0.00 | 68 | 1018.7 |
| 20260504010511 | 45 | 226 | 0.9 | 1.7 | 0.00 | 0.07 | 0.00 | 69 | 1018.6 |
| 20260504010030 | 45 | 217 | 0.9 | 1.7 | 0.00 | 0.07 | 0.00 | 68 | 1018.5 |
| 20260504005512 | 45 | 221 | 0.9 | 1.7 | 0.00 | 0.07 | 0.00 | 68 | 1018.6 |
| 20260504005011 | 45 | 210 | 0.9 | 1.7 | 0.00 | 0.07 | 0.00 | 67 | 1018.6 |
| 20260504004532 | 45 | 195 | 0.0 | 2.6 | 0.00 | 0.07 | 0.00 | 68 | 1018.6 |
| 20260504004012 | 45 | 210 | 0.9 | 2.6 | 0.00 | 0.07 | 0.00 | 69 | 1018.6 |
| 20260504003512 | 46 | 230 | 0.9 | 3.5 | 0.00 | 0.07 | 0.00 | 68 | 1018.6 |
| 20260504003035 | 46 | 221 | 1.7 | 3.5 | 0.00 | 0.07 | 0.00 | 67 | 1018.6 |
| 20260504002513 | 46 | 229 | 0.9 | 3.5 | 0.00 | 0.07 | 0.00 | 67 | 1018.6 |
| 20260504002011 | 46 | 212 | 1.7 | 3.5 | 0.00 | 0.07 | 0.00 | 67 | 1018.7 |
| 20260504001530 | 46 | 263 | 0.9 | 2.6 | 0.00 | 0.07 | 0.00 | 69 | 1018.5 |
| 20260504001009 | 46 | 239 | 1.7 | 2.6 | 0.00 | 0.07 | 0.00 | 70 | 1018.6 |
| 20260504000507 | 46 | 201 | 0.9 | 2.6 | 0.00 | 0.07 | 0.00 | 71 | 1018.6 |
| 20260504000030 | 46 | 193 | 0.9 | 2.6 | 0.00 | 0.07 | 0.00 | 71 | 1018.6 |
| 20260503235512 | 46 | 219 | 1.7 | 2.6 | 0.00 | 0.07 | 0.00 | 71 | 1018.7 |